Location: Gollag?dem
(16.8053°N, 80.8024°E)
Time: 14:29:08
(UTC+00:00)

Yuri Rocket - Pass Details

Date: 13 August 2020
Orbit: 568 x 1914 km, 28.2° (Epoch: 24 September)

Event Time Altitude Azimuth Distance (km) Brightness Sun altitude
Rises 13:17:35 0° 254° (WSW) 3,461 8.0 -4.2°
Reaches altitude 10° 13:20:29 10° 258° (WSW) 2,333 7.2 -4.9°
Maximum altitude 13:25:41 57° 337° (NNW) 762 3.8 -6.0°
Drops below altitude 10° 13:29:54 10° 57° (ENE) 1,899 5.2 -7.0°
Sets 13:32:03 0° 61° (ENE) 2,757 6.0 -7.5°
Enters shadow 13:32:06 - 62° (ENE) 2,778 6.0 -7.5°
